Regional Weather Roundup
Issued by NWS Jackson, KY

Home | Current Version | Previous Version | Graphics & Text | Print | Product List | Glossary On
Versions: 1 2 3 4 5 6 7 8 9 10 11 12 13 14 15 16 17 18 19 20 21 22 23 24 25 26 27 28 29 30 31 32 33 34 35 36 37 38 39 40 41 42 43 44 45 46 47 48 49 50
000
ASUS43 KJKL 070410
RWRJKL

EAST KENTUCKY HOURLY WEATHER ROUNDUP
NATIONAL WEATHER SERVICE JACKSON KY
1100 PM EST TUE DEC 06 2016

NOTE: "FAIR" INDICATES FEW OR NO CLOUDS BELOW 12,000 FEET WITH
NO SIGNIFICANT WEATHER AND/OR OBSTRUCTIONS TO VISIBILITY.

* THESE REPORTS ARE NOT UNDER NWS QUALITY CONTROL AND MAY NOT
  REPORT WEATHER SUCH AS PRECIPITATION AND FOG.

KYZ079-080-083-085-087-088-110-112-115-119-120-070500
...EASTERN KENTUCKY...

CITY           SKY/WX    TMP DP  RH WIND       PRES   REMARKS
JACKSON        CLOUDY    42  38  85 NW8       29.97S
LONDON         CLOUDY    43  37  79 W8        29.99R
SOMERSET*      CLOUDY    41  36  81 NW3       30.03R
MONTICELLO*    CLOUDY    43  39  86 W9        30.04R
WILLIAMSBURG*  CLOUDY    41  41 100 W5        30.00R
MIDDLESBORO*   MOCLDY    45  38  77 N9        29.99R
HARLAN APT*    CLOUDY    43  37  81 CALM      29.97S
PIKE CO APT*   CLOUDY    43  40  89 NW10      29.96R
BIG SANDY APT* CLOUDY    44  39  83 NW6       29.97R
MOREHEAD APT*  CLOUDY    43  36  75 W7        30.00R
ASHLAND*       CLOUDY    45  37  76 NW7       29.96R
$$

KYZ035-036-041-042-044-050-067-078-099-070500
...CENTRAL KENTUCKY...

CITY           SKY/WX    TMP DP  RH WIND       PRES   REMARKS
MT STERLING*   CLOUDY    41  37  87 NW6       30.01R
FLEMING/MASON* CLOUDY    40  35  81 NW9       29.99R WCI  34
DANVILLE*      CLOUDY    39  34  81 NW6       30.03R WCI  35
LEXINGTON      CLOUDY    41  34  76 NW7       30.00R
FRANKFORT      CLOUDY    40  33  76 W5        30.00R
LOUISVILLE     CLOUDY    40  31  70 NW10      30.05R WCI  33
LEBANON*       CLOUDY    39  36  87 NW6       30.04R WCI  35
GLASGOW*       CLOUDY    39  39  99 W5        30.07R
BOWLING GREEN  CLOUDY    41  34  76 VRB6      30.09R
$$

KYZ091>093-OHZ055-061-077-WVZ005-015-034-035-042-070500
...SOUTHERN OHIO/WEST VIRGINIA...

CITY           SKY/WX    TMP DP  RH WIND       PRES   REMARKS
COVINGTON      MOCLDY    36  31  82 W12       30.00R WCI  28
COLUMBUS       CLOUDY    38  38 100 W8        29.91R WCI  32
DAYTON         CLOUDY    34  29  82 W13       29.97R WCI  25
WILMINGTON     CLOUDY    36  32  85 W15       29.96R WCI  27
HUNTINGTON     CLOUDY    45  38  76 W10G17    29.96R
CHARLESTON     CLOUDY    46  40  79 W9G18     29.92R
PINEVILLE*     CLOUDY    45  43  90 MISG      29.94R
BECKLEY        CLOUDY    43  39  86 NW14G24   29.87R
BLUEFIELD      CLOUDY    41  39  93 NW12G20   29.88R
LOGAN CO APT*  CLOUDY    45  43  93 W3        29.92R
$$

VAZ002-007-008-TNZ017-027-036-066-071-070500
...SOUTHWEST VIRGINIA/EAST TENNESSEE...

CITY           SKY/WX    TMP DP  RH WIND       PRES   REMARKS
WISE*          CLOUDY    43  43 100 W10       29.94R
JONESVILLE*      N/A     45  39  81 NW7       29.99R
ABINGDON*      CLOUDY    47  47 100 NW12G17   29.92R
BRISTOL        CLOUDY    46  45  96 W3        29.94R
MORRISTOWN*    CLOUDY    48  45  87 NW6       29.96R
SEVIERVILLE*   CLOUDY    48  43  81 NW5       29.97R
KNOXVILLE      CLOUDY    50  46  86 CALM      29.97R
OAK RIDGE      CLEAR     46  39  76 NW6       29.99R
CROSSVILLE     CLOUDY    41  37  86 NW6       29.99R
NASHVILLE      CLOUDY    43  36  76 NW7       30.07R
$$

...KEY TO REMARKS...
VSB - VISIBILITY IN MILES
WCI - WIND CHILL INDEX
HX  - HEAT INDEX

$$



USA.gov is the U.S. government's official web portal to all federal, state and local government web resources and services.